Tracking 30701 objects as of 14-Jun-2025
HD Live streaming from Space Station
objects crossing your sky now

STARLINK-5053

Track STARLINK-5053 now!
10-day predictions
STARLINK-5053 is classified as:


NORAD ID: 53913
Int'l Code: 2022-119AD
Perigee: 544.5 km
Apogee: 549.2 km
Inclination: 53.2 °
Period: 95.4 minutes
Semi major axis: 6917 km
RCS: Unknown
Launch date: September 24, 2022
Source: United States (US)
Launch site: AIR FORCE EASTERN TEST RANGE (AFETR)
Your satellite tracking list
Your tracking list is empty




NASA's NSSDC Master Catalog

Two Line Element Set (TLE):
1 53913U 22119AD  25164.48052686 -.00001964  00000-0 -10521-3 0  9997
2 53913  53.2215  82.6280 0003338  82.7846 277.3525 15.08851580151187
Source of the keplerian elements: AFSPC